This demonstration page uses our WeatherBlox Daily Observations layout. Learn more.

Left ArrowRight Arrow

38.89511, -77.03637

Hourly Observations for March 1, 2021

Temp ( °F °C ) Dew Point ( °F °C ) Humidity (%) Winds ( mph kmh ) Pressure ( in mb ) Visibility ( mi km ) Precip ( " mm )
12:20 am 00:20 Cloudy 44 6.7 43 6.1 96 96 VRB 3 6 29.87 1012 10 16.0934 0.01 0.254
12:52 am 00:52 Cloudy with Light Rain 44 6.7 43 6.1 96 96 NNE 3 6 29.86 1011 7 11.26538 0.01 0.254
1:26 am 01:26 Cloudy with Light Rain 45 7.2 43 6.1 93 93 N 3 6 29.84 1011 8 12.87472 0.001 0.001
1:52 am 01:52 Cloudy with Light Rain 45 7.2 43 6.1 93 93 Calm 29.84 1011 8 12.87472 0.001 0.001
2:01 am 02:01 Cloudy with Light Rain 45 7.2 43 6.1 93 93 Calm 29.83 1010 8 12.87472 0.001 0.001
2:08 am 02:08 Cloudy 45 7.2 43 6.1 93 93 Calm 29.83 1010 7 11.26538 0.001 0.001
2:20 am 02:20 Cloudy 45 7.2 44 6.7 97 97 Calm 29.81 1010 7 11.26538 0.001 0.001
2:29 am 02:29 Cloudy 45 7.2 44 6.7 97 97 Calm 29.8 1009 7 11.26538 0.001 0.001
2:40 am 02:40 Cloudy with Light Rain 45 7.2 43 6.1 93 93 Calm 29.78 1009 6 9.65604 0.001 0.001
2:52 am 02:52 Cloudy with Mist and Fog 45 7.2 43 6.1 93 93 Calm 29.77 1008 5 8.0467 0.001 0.001
3:16 am 03:16 Cloudy with Light Rain 45 7.2 44 6.7 97 97 Calm 29.76 1008 5 8.0467 0.001 0.001
3:43 am 03:43 Cloudy with Light Rain 45 7.2 43 6.1 93 93 Calm 29.77 1008 5 8.0467 0.02 0.508
3:46 am 03:46 Cloudy with Light Rain 45 7 45 7 100 100 Calm 29.77 1008 6 9.65604 0.02 0.508
3:52 am 03:52 Cloudy with Light Rain 45 7.2 44 6.7 97 97 Calm 29.77 1008 6 9.65604 0.02 0.508
4:03 am 04:03 Cloudy with Light Rain 45 7.2 44 6.7 97 97 Calm 29.77 1008 6 9.65604 0.001 0.001
4:31 am 04:31 Cloudy with Light Rain 46 7.8 44 6.7 93 93 Calm 29.76 1008 5 8.0467 0.02 0.508
4:52 am 04:52 Cloudy with Light Rain 45 7.2 44 6.7 97 97 Calm 29.76 1008 4 6.43736 0.03 0.762
5:52 am 05:52 Cloudy with Light Rain 45 7.2 44 6.7 97 97 Calm 29.76 1008 5 8.0467 0.05 1.27
6:52 am 06:52 Cloudy with Light Rain 45 7.2 44 6.7 97 97 Calm 29.75 1008 4 6.43736 0.05 1.27
7:18 am 07:18 Cloudy with Light Rain 46 7.8 44 6.7 93 93 S 7 11 29.75 1008 2 3.21868 0.03 0.762
7:52 am 07:52 Cloudy with Light Rain 46 7.8 45 7.2 96 96 SSW 5 7 29.75 1008 2.5 4.02335 0.05 1.27
8:11 am 08:11 Cloudy with Light Rain 46 7.8 45 7.2 96 96 S 7 11 29.75 1008 3 4.82802 0.01 0.254
8:36 am 08:36 Cloudy with Light Rain 46 7.8 45 7.2 96 96 S 12 19 29.72 1006 2.5 4.02335 0.04 1.016
8:48 am 08:48 Cloudy with Light Rain 46 8 45 7 93 93 S 10 17 29.7 1006 2.5 4.02335 0.04 1.016
8:52 am 08:52 Cloudy with Light Rain 46 7.8 45 7.2 96 96 S 12 19 29.69 1005 2.5 4.02335 0.04 1.016
9:14 am 09:14 Cloudy with Light Rain 47 8.3 46 7.8 97 97 WSW 7 11 29.73 1007 4 6.43736 0.01 0.254
9:41 am 09:41 Cloudy with Mist and Fog 48 8.9 47 8.3 96 96 SSW 3 6 29.76 1008 6 9.65604 0.01 0.254
9:52 am 09:52 Cloudy with Mist and Fog 47 8.3 46 7.8 97 97 SSE 5 7 29.74 1007 6 9.65604 0.01 0.254
10:52 am 10:52 Cloudy with Mist and Fog 48 8.9 47 8.3 96 96 SSW 6 9 29.73 1007 5 8.0467 0 0
11:05 am 11:05 Cloudy with Rain 51 10.6 49 9.4 92 92 NW 9 15 29.75 1007 4 6.43736 0.01 0.254
11:13 am 11:13 Cloudy with Light Rain 52 11.1 50 10 93 93 NW 13 20 29.75 1007 4 6.43736 0.03 0.762
11:28 am 11:28 Cloudy with Light Rain 52 11.1 49 9.4 89 89 NNW 13 20 29.76 1008 8 12.87472 0.03 0.762
11:39 am 11:39 Cloudy 52 11.1 46 7.8 80 80 NW 16 26 29.77 1008 8 12.87472 0.03 0.762
11:52 am 11:52 Cloudy with Drizzle 51 10.6 46 7.8 83 83 NW 16 26 29.78 1009 8 12.87472 0.03 0.762
12:52 pm 12:52 Cloudy 51 10.6 41 5 69 69 NW 12 19 29.79 1009 10 16.0934 0.001 0.001
1:52 pm 13:52 Cloudy 50 10 35 1.7 57 57 NW 21 33 29.78 1009 10 16.0934 0 0
2:52 pm 14:52 Cloudy 50 10 35 1.7 57 57 WNW 14 22 29.83 1010 10 16.0934 0 0
3:52 pm 15:52 Cloudy 50 10 29 -1.7 44 44 WNW 16 26 29.85 1011 10 16.0934 0 0
4:52 pm 16:52 Mostly Cloudy 51 10.6 28 -2.2 41 41 WNW 10 17 29.85 1011 10 16.0934 0 0
5:52 pm 17:52 Partly Cloudy 50 10 24 -4.4 36 36 WNW 13 20 29.92 1013 10 16.0934 0 0
6:52 pm 18:52 Partly Cloudy 48 8.9 20 -6.7 33 33 WNW 22 35 29.97 1015 10 16.0934 0 0
7:52 pm 19:52 Partly Cloudy 46 7.8 21 -6.1 37 37 NW 18 30 30 1016 10 16.0934 0 0
8:52 pm 20:52 Partly Cloudy 45 7.2 21 -6.1 39 39 WNW 15 24 30.01 1016 10 16.0934 0 0
9:52 pm 21:52 Partly Cloudy 44 6.7 21 -6.1 40 40 NW 13 20 30.05 1018 10 16.0934 0 0
10:52 pm 22:52 Mostly Cloudy 41 5 24 -4.4 51 51 NNW 15 24 30.07 1018 10 16.0934 0 0
11:52 pm 23:52 Mostly Clear 40 4.4 20 -6.7 45 45 NW 21 33 30.09 1019 10 16.0934 0 0

Powered by AerisWeather